• MPC Preparation (Info)

  • MPEC 2017-F102: 2017 FN64

    The following Minor Planet Electronic Circular may be linked-to from your own Web pages, but must not otherwise be redistributed electronically.

    A form allowing access to any MPEC is at the bottom of this page.


    Read MPEC 2017-F101 Read MPEC 2017-F103


    M.P.E.C. 2017-F102                               Issued 2017 Mar. 24, 20:18 UT
    
         The Minor Planet Electronic Circulars contain information on unusual
             minor planets and routine data on comets.  They are published
        on behalf of Division F of the International Astronomical Union by the
              Minor Planet Center, Smithsonian Astrophysical Observatory,
                              Cambridge, MA 02138, U.S.A.
    
                 Prepared using the Tamkin Foundation Computer Network
    
                                  MPC@CFA.HARVARD.EDU
                URL https://www.minorplanetcenter.net/    ISSN 1523-6714
    
                                       2017 FN64
    
    Observations:
         K17F64N* C2017 03 19.37852 12 30 49.204-05 07 51.40         21.2 wLEF102F51
         K17F64N  C2017 03 19.39060 12 30 47.605-05 06 58.08         20.8 wLEF102F51
         K17F64N  C2017 03 19.40268 12 30 46.009-05 06 04.39         20.7 wLEF102F51
         K17F64N  C2017 03 19.41477 12 30 44.398-05 05 10.77         21.0 wLEF102F51
         K17F64N KC2017 03 20.08593412 29 20.81 -04 15 14.7          20.3 GUEF102K91
         K17F64N KC2017 03 20.09088312 29 20.17 -04 14 53.0          20.5 GUEF102K91
         K17F64N KC2017 03 20.09484612 29 19.66 -04 14 35.4          20.4 GUEF102K91
         K17F64N KC2017 03 20.26413 12 29 00.76 -04 02 38.5                oEF102291
         K17F64N KC2017 03 20.26694 12 29 00.44 -04 02 26.3          21.7 RoEF102291
         K17F64N KC2017 03 20.26977 12 29 00.06 -04 02 13.7          21.7 RoEF102291
         K17F64N |C2017 03 22.26300 12 24 59.10 -01 37 42.7          20.6 VuEF102807
         K17F64N |C2017 03 22.26686 12 24 58.63 -01 37 26.0          20.5 VuEF102807
         K17F64N |C2017 03 22.27072 12 24 58.12 -01 37 09.4          20.9 VuEF102807
         K17F64N  C2017 03 24.32081 12 20 58.80 +00 45 21.7          20.5 RoEF102926
         K17F64N KC2017 03 24.32453 12 20 58.36 +00 45 36.5          20.9 RoEF102291
         K17F64N KC2017 03 24.32554 12 20 58.22 +00 45 40.6          20.7 RoEF102291
         K17F64N KC2017 03 24.32657 12 20 58.09 +00 45 44.8          20.7 RoEF102291
         K17F64N  C2017 03 24.32833 12 20 57.86 +00 45 52.3          20.2 RoEF102926
         K17F64N  C2017 03 24.33653 12 20 56.86 +00 46 25.8          20.4 RoEF102926
    
    Observer details:
    291 LPL/Spacewatch II.  Observers M. T. Read, A. F. Tubbiolo.  1.8-m f/2.7
        reflector + CCD.
    807 Cerro Tololo.  Observers T. Linder, R. Holmes.  0.61-m f/6.5 astrograph
        + CCD.
    926 Tenagra II Observatory.  Observers M. Schwartz, P. R. Holvorcem.  Measurer
        M. Schwartz.  0.81-m f/7 Ritchey-Chretien + CCD.
    F51 Pan-STARRS 1, Haleakala.  Observers B. Gibson, T. Goggia, S. Kahale,
        T. Lowe, A. Schultz, M. Willman.  Measurers K. Chambers, S. Chastel,
        L. Denneau, H. Flewelling, M. Huber, E. Lilly, E. Magnier, R. Wainscoat,
        C. Waters, R. Weryk.  1.8-m Ritchey-Chretien + CCD.
    K91 Sutherland-LCOGT A.  Observers T. Lister, S. Greenstreet, E. Gomez.
        Measurer T. Lister.  1.0-m f/8 Ritchey-Chretien + CCD.
    
    Orbital elements:
    2017 FN64                                                Earth MOID = 0.1406 AU
    Epoch 2017 Feb. 16.0 TT = JDT 2457800.5                 MPC
    M  74.39108              (2000.0)            P               Q
    n   0.79433364     Peri.  227.15073     +0.65353863     -0.75673582
    a   1.1546953      Node   182.21822     +0.75683323     +0.65360761
    e   0.3233026      Incl.   23.49753     +0.00952484     -0.01216488
    P   1.24           H   22.1           G   0.15           U   8
    Residuals in seconds of arc
    170319 F51  0.1+  0.2+    170320 291  0.5-  0.0     170324 291  0.1+  0.0
    170319 F51  0.0   0.1-    170320 291  0.2+  0.1-    170324 291  0.1-  0.0
    170319 F51  0.1+  0.0     170320 291  0.0   0.0     170324 291  0.1-  0.0
    170319 F51  0.0   0.1-    170322 807  0.1-  0.3-    170324 926  0.0   0.1+
    170320 K91  0.2-  0.2+    170322 807  0.3+  0.1-    170324 926  0.3+  0.0
    170320 K91  0.2-  0.1+    170322 807  0.0   0.0
    170320 K91  0.2-  0.2+    170324 926  0.1+  0.3+
    
    Ephemeris:
    2017 FN64                a,e,i = 1.15, 0.32, 23                  q = 0.7814
    Date    TT    R. A. (2000) Decl.     Delta      r     Elong.  Phase     V
    2017 02 22    13 16 22.1 -33 27 33   0.3534  1.2036   119.6    45.6    22.0
    ...
    2017 03 09    12 52 04.0 -18 05 15   0.3197  1.2739   147.4    24.8    21.3
    ...
    2017 03 17    12 35 42.2 -08 05 48   0.3223  1.3084   164.5    11.7    20.9
    ...
    2017 03 23    12 23 32.5 -00 45 54   0.3365  1.3327   176.2     2.8    20.7
    2017 03 24    12 21 35.9 +00 23 33   0.3400  1.3366   177.1     2.2    20.6
    2017 03 25    12 19 41.3 +01 31 31   0.3437  1.3405   176.6     2.5    20.7
    ...
    2017 03 31    12 09 08.3 +07 42 24   0.3718  1.3630   166.3    10.0    21.3
    ...
    2017 04 08    11 58 09.1 +14 05 51   0.4229  1.3909   152.8    19.2    21.9
    ...
    2017 04 23    11 48 03.2 +20 58 03   0.5478  1.4363   133.0    30.8    22.9
    
    A. U. Tomatic                (C) Copyright 2017 MPC           M.P.E.C. 2017-F102
    

    Read MPEC 2017-F101 Read MPEC 2017-F103


    MPEC number:

    Enter an MPEC number in one of the following forms:

    • 1997-B01 (the full form)
    • J97B01 (the packed version of the full form)
    • B01 (the abbreviated form)